When you browse on this site, cookies collect data to enhance your experience and personalize the content and advertising you see.
Visit our Privacy Policy to learn more. By continuing to use the site, you agree to this use of cookies and data.
  • In Schweiz
  • Länderverzeichnis
  • Für 7 Tage
  • Wassertemperatur
  • Wetterkarte
  • Widgets
  • user-avatar
    Anmelden

    Stündliche Wetter Suschevo

    Heute, 18 August, Sonntag

    Zeit Temperatur Niederschläge Wind Luftdruck Luftfeuchtigkeit
    00:00 +13°C° 1.1 mm 3 m/S 737 mmHg 98%
    01:00 +14°C° 1.1 mm 3 m/S 737 mmHg 98%
    02:00 +15°C° 1.1 mm 2 m/S 737 mmHg 99%
    03:00 +14°C° 1.2 mm 3 m/S 737 mmHg 99%
    04:00 +14°C° 1.2 mm 3 m/S 737 mmHg 98%
    05:00 +14°C° 1.2 mm 3 m/S 736 mmHg 98%
    06:00 +13°C° 1.2 mm 3 m/S 736 mmHg 98%
    07:00 +13°C° 1.2 mm 3 m/S 736 mmHg 98%
    08:00 +13°C° 1.2 mm 3 m/S 736 mmHg 97%
    09:00 +13°C° 0.9 mm 3 m/S 736 mmHg 97%
    10:00 +14°C° 0.9 mm 3 m/S 737 mmHg 96%
    11:00 +14°C° 0.9 mm 3 m/S 737 mmHg 95%
    12:00 +15°C° 0.2 mm 2 m/S 737 mmHg 94%
    13:00 +16°C° 0.2 mm 2 m/S 737 mmHg 93%
    14:00 +17°C° 0.2 mm 2 m/S 737 mmHg 91%
    15:00 +17°C° 0 mm 2 m/S 738 mmHg 90%
    16:00 +17°C° 0 mm 2 m/S 738 mmHg 89%
    17:00 +17°C° 0 mm 2 m/S 738 mmHg 88%
    18:00 +18°C° 0 mm 1 m/S 738 mmHg 90%
    19:00 +16°C° 0 mm 1 m/S 739 mmHg 92%
    20:00 +15°C° 0 mm 1 m/S 739 mmHg 94%
    21:00 +14°C° 0 mm 1 m/S 739 mmHg 95%
    22:00 +14°C° 0 mm 1 m/S 739 mmHg 95%
    23:00 +14°C° 0 mm 1 m/S 739 mmHg 96%

    Morgen, 19 August, Montag

    Zeit Temperatur Niederschläge Wind Luftdruck Luftfeuchtigkeit
    00:00 +14°C° 0 mm 1 m/S 740 mmHg 96%
    01:00 +13°C° 0 mm 2 m/S 740 mmHg 96%
    02:00 +13°C° 0 mm 2 m/S 740 mmHg 96%
    03:00 +13°C° 0 mm 2 m/S 740 mmHg 95%
    04:00 +13°C° 0 mm 1 m/S 740 mmHg 95%
    05:00 +12°C° 0 mm 1 m/S 740 mmHg 95%
    06:00 +14°C° 0 mm 2 m/S 741 mmHg 91%
    07:00 +16°C° 0 mm 2 m/S 741 mmHg 88%
    08:00 +17°C° 0 mm 2 m/S 741 mmHg 85%
    09:00 +19°C° 0 mm 3 m/S 742 mmHg 79%
    10:00 +21°C° 0 mm 3 m/S 742 mmHg 73%
    11:00 +22°C° 0 mm 3 m/S 742 mmHg 68%
    12:00 +23°C° 0 mm 4 m/S 742 mmHg 67%
    13:00 +25°C° 0 mm 4 m/S 742 mmHg 65%
    14:00 +25°C° 0 mm 4 m/S 742 mmHg 64%
    15:00 +25°C° 0 mm 4 m/S 742 mmHg 68%
    16:00 +25°C° 0 mm 3 m/S 742 mmHg 71%
    17:00 +24°C° 0 mm 3 m/S 742 mmHg 75%
    18:00 +22°C° 0 mm 3 m/S 742 mmHg 80%
    19:00 +20°C° 0 mm 3 m/S 742 mmHg 85%
    20:00 +19°C° 0 mm 3 m/S 742 mmHg 90%
    21:00 +19°C° 0.1 mm 3 m/S 742 mmHg 91%
    22:00 +18°C° 0.1 mm 3 m/S 742 mmHg 92%
    23:00 +18°C° 0.1 mm 3 m/S 742 mmHg 93%

    übermorgen, 20 August, Dienstag

    Zeit Temperatur Niederschläge Wind Luftdruck Luftfeuchtigkeit
    00:00 +17°C° 0 mm 2 m/S 743 mmHg 94%
    01:00 +17°C° 0 mm 2 m/S 743 mmHg 95%
    02:00 +17°C° 0 mm 2 m/S 743 mmHg 96%
    03:00 +17°C° 0.4 mm 2 m/S 743 mmHg 97%
    04:00 +18°C° 0.4 mm 1 m/S 743 mmHg 97%
    05:00 +18°C° 0.4 mm 1 m/S 743 mmHg 98%
    06:00 +19°C° 0.1 mm 1 m/S 744 mmHg 96%
    07:00 +20°C° 0.1 mm 1 m/S 744 mmHg 94%
    08:00 +20°C° 0.1 mm 2 m/S 744 mmHg 93%
    09:00 +23°C° 0.1 mm 1 m/S 744 mmHg 87%
    10:00 +24°C° 0.1 mm 1 m/S 745 mmHg 82%
    11:00 +25°C° 0.1 mm 1 m/S 745 mmHg 77%
    12:00 +25°C° 0.2 mm 1 m/S 745 mmHg 78%
    13:00 +25°C° 0.2 mm 2 m/S 745 mmHg 79%
    14:00 +25°C° 0.2 mm 2 m/S 745 mmHg 80%
    15:00 +25°C° 0.7 mm 2 m/S 745 mmHg 82%
    16:00 +25°C° 0.7 mm 2 m/S 745 mmHg 85%
    17:00 +25°C° 0.7 mm 1 m/S 745 mmHg 88%
    18:00 +23°C° 0.8 mm 1 m/S 745 mmHg 90%
    19:00 +22°C° 0.8 mm 1 m/S 745 mmHg 92%
    20:00 +20°C° 0.8 mm 1 m/S 745 mmHg 94%
    21:00 +20°C° 0 mm 1 m/S 745 mmHg 94%
    22:00 +19°C° 0 mm 1 m/S 745 mmHg 95%
    23:00 +17°C° 0 mm 0 m/S 745 mmHg 95%

    21 August, Mittwoch

    Zeit Temperatur Niederschläge Wind Luftdruck Luftfeuchtigkeit
    00:00 +19°C° 0 mm 1 m/S 746 mmHg 95%
    01:00 +18°C° 0 mm 1 m/S 746 mmHg 95%
    02:00 +18°C° 0 mm 1 m/S 746 mmHg 95%
    03:00 +18°C° 0 mm 1 m/S 746 mmHg 95%
    04:00 +16°C° 0 mm 1 m/S 746 mmHg 95%
    05:00 +16°C° 0 mm 1 m/S 746 mmHg 95%
    06:00 +19°C° 0 mm 1 m/S 746 mmHg 92%
    07:00 +18°C° 0 mm 0 m/S 746 mmHg 89%
    08:00 +19°C° 0 mm 0 m/S 746 mmHg 87%
    09:00 +21°C° 0 mm 0 m/S 746 mmHg 81%
    10:00 +22°C° 0 mm 0 m/S 746 mmHg 75%
    11:00 +24°C° 0 mm 0 m/S 746 mmHg 70%
    12:00 +24°C° 0.4 mm 0 m/S 746 mmHg 70%
    13:00 +24°C° 0.4 mm 0 m/S 745 mmHg 70%
    14:00 +26°C° 0.4 mm 1 m/S 745 mmHg 70%
    15:00 +25°C° 1.1 mm 1 m/S 745 mmHg 76%
    16:00 +24°C° 1.1 mm 1 m/S 744 mmHg 82%
    17:00 +24°C° 1.1 mm 1 m/S 744 mmHg 88%
    18:00 +23°C° 0.2 mm 1 m/S 744 mmHg 90%
    19:00 +22°C° 0.2 mm 1 m/S 743 mmHg 91%
    20:00 +20°C° 0.2 mm 2 m/S 743 mmHg 93%
    21:00 +20°C° 0.9 mm 2 m/S 743 mmHg 94%
    22:00 +20°C° 0.9 mm 1 m/S 743 mmHg 95%
    23:00 +20°C° 0.9 mm 1 m/S 742 mmHg 96%

    22 August, Donnerstag

    Zeit Temperatur Niederschläge Wind Luftdruck Luftfeuchtigkeit
    00:00 +19°C° 0.9 mm 2 m/S 743 mmHg 96%
    01:00 +18°C° 0.9 mm 2 m/S 743 mmHg 97%
    02:00 +18°C° 0.9 mm 3 m/S 743 mmHg 97%
    03:00 +17°C° 0.4 mm 3 m/S 743 mmHg 97%
    04:00 +15°C° 0.4 mm 4 m/S 743 mmHg 96%
    05:00 +14°C° 0.4 mm 4 m/S 743 mmHg 96%
    06:00 +14°C° 0.1 mm 4 m/S 743 mmHg 94%
    07:00 +14°C° 0.1 mm 4 m/S 744 mmHg 93%
    08:00 +14°C° 0.1 mm 4 m/S 744 mmHg 92%
    09:00 +17°C° 0 mm 4 m/S 745 mmHg 84%
    10:00 +18°C° 0 mm 4 m/S 745 mmHg 76%
    11:00 +20°C° 0 mm 4 m/S 746 mmHg 68%
    12:00 +21°C° 0 mm 4 m/S 746 mmHg 65%
    13:00 +21°C° 0 mm 4 m/S 746 mmHg 62%
    14:00 +22°C° 0 mm 3 m/S 746 mmHg 59%
    15:00 +22°C° 0 mm 3 m/S 746 mmHg 63%
    16:00 +21°C° 0 mm 3 m/S 746 mmHg 66%
    17:00 +21°C° 0 mm 2 m/S 746 mmHg 70%
    18:00 +19°C° 0 mm 2 m/S 746 mmHg 74%
    19:00 +17°C° 0 mm 2 m/S 746 mmHg 78%
    20:00 +15°C° 0 mm 2 m/S 746 mmHg 81%
    21:00 +15°C° 0 mm 2 m/S 746 mmHg 84%
    22:00 +14°C° 0 mm 2 m/S 747 mmHg 86%
    23:00 +13°C° 0 mm 2 m/S 747 mmHg 89%

    23 August, Freitag

    Zeit Temperatur Niederschläge Wind Luftdruck Luftfeuchtigkeit
    00:00 +13°C° 0 mm 2 m/S 747 mmHg 90%
    01:00 +12°C° 0 mm 2 m/S 747 mmHg 91%
    02:00 +12°C° 0 mm 2 m/S 747 mmHg 93%
    03:00 +10°C° 0 mm 2 m/S 747 mmHg 93%
    04:00 +11°C° 0 mm 1 m/S 747 mmHg 93%
    05:00 +11°C° 0 mm 1 m/S 747 mmHg 94%
    06:00 +13°C° 0 mm 1 m/S 747 mmHg 87%
    07:00 +14°C° 0 mm 1 m/S 747 mmHg 81%
    08:00 +16°C° 0 mm 1 m/S 747 mmHg 75%
    09:00 +18°C° 0 mm 1 m/S 747 mmHg 70%
    10:00 +19°C° 0 mm 1 m/S 747 mmHg 65%
    11:00 +20°C° 0 mm 2 m/S 747 mmHg 61%
    12:00 +20°C° 0.1 mm 2 m/S 747 mmHg 61%
    13:00 +20°C° 0.1 mm 2 m/S 747 mmHg 61%
    14:00 +20°C° 0.1 mm 2 m/S 747 mmHg 61%
    15:00 +19°C° 0.1 mm 2 m/S 747 mmHg 67%
    16:00 +18°C° 0.1 mm 2 m/S 747 mmHg 74%
    17:00 +18°C° 0.1 mm 2 m/S 746 mmHg 80%
    18:00 +16°C° 0.1 mm 2 m/S 746 mmHg 84%
    19:00 +15°C° 0.1 mm 2 m/S 746 mmHg 87%
    20:00 +14°C° 0.1 mm 2 m/S 746 mmHg 90%
    21:00 +13°C° 0 mm 2 m/S 747 mmHg 92%
    22:00 +13°C° 0 mm 2 m/S 747 mmHg 93%
    23:00 +12°C° 0 mm 2 m/S 747 mmHg 94%
    Mehr zeigen